Wind_Speed
58 59 59 59 59 59 59 59 59 59 59 59 59 58 58 58 57 57 56 56 55 55 55 55 56 56 56 56 55 55 55 55 55 54 54 53 53 52 52 52 51 50 48 47 47 47 47 47 47 46 45 44 43 42 42 41 40 40 40 40 39 40 40 40 40 40 40 40 40 40 40 39 37 37 38 39 39 38 37 35 32 31 30 29 29 30
58 58 58 58 58 58 59 59 58 58 58 59 58 58 58 58 58 58 58 57 57 57 58 58 58 57 57 57 56 56 56 56 56 56 56 55 55 55 54 54 53 52 50 49 49 48 48 49 48 48 47 46 45 44 43 43 42 41 41 41 41 41 41 41 41 41 41 41 40 40 40 39 38 38 38 39 40 40 39 37 35 33 32 31 31 31
56 57 57 57 57 57 58 58 57 57 57 58 58 57 57 57 57 57 57 57 58 58 58 59 59 59 59 59 58 57 57 56 56 56 56 56 56 56 56 55 55 54 52 51 51 50 50 50 50 50 49 48 47 46 46 45 44 43 43 42 42 42 41 41 41 42 42 42 41 41 40 40 39 38 39 40 40 40 40 39 37 35 34 34 33 33
54 55 56 56 56 56 56 56 56 56 56 56 56 56 56 56 56 56 56 56 56 57 57 58 58 59 60 60 59 59 58 58 57 56 56 56 56 56 56 56 56 55 54 53 52 52 51 51 51 51 51 50 50 49 48 47 46 45 44 44 43 43 43 42 42 42 43 43 42 42 42 41 40 40 40 40 41 41 40 39 38 36 35 35 35 34
52 53 54 54 54 54 55 55 55 55 56 56 56 56 56 56 56 56 55 55 55 56 56 56 57 58 59 59 59 59 59 59 58 58 57 57 57 57 56 56 56 55 55 54 53 53 52 52 52 52 52 52 51 51 50 49 48 47 47 46 45 45 44 44 44 43 43 43 44 44 43 43 42 41 41 40 40 40 40 40 39 37 36 36 36 35
52 53 54 54 55 55 55 55 56 56 56 56 56 56 56 56 56 56 55 55 55 55 55 55 56 56 57 58 58 59 59 59 58 58 58 58 57 57 56 56 56 56 55 54 54 53 53 53 53 53 53 53 53 53 52 51 50 49 49 48 47 47 46 45 45 44 44 44 44 44 44 44 43 42 41 40 40 40 40 40 39 37 36 36 36 35
54 55 55 56 57 57 57 57 58 58 58 59 59 59 58 58 58 57 57 57 56 56 56 55 55 55 56 56 57 57 58 58 58 58 58 58 58 57 57 56 56 56 56 55 54 53 53 53 53 53 54 54 55 54 54 53 52 51 50 50 49 48 48 47 46 46 45 44 44 44 44 44 44 43 42 41 39 39 40 40 40 38 37 37 37 36
56 56 57 57 58 58 59 59 59 60 60 61 61 62 62 61 61 60 60 59 59 58 58 57 57 56 55 55 55 56 57 57 58 58 58 58 58 58 57 57 57 57 57 56 54 53 52 52 52 53 54 54 55 55 55 55 54 53 52 51 51 50 49 49 48 47 46 45 44 44 44 45 44 44 43 41 40 40 41 42 41 40 39 39 38 37
57 57 58 58 58 59 59 60 60 60 60 61 62 63 63 63 63 63 63 62 61 61 61 60 59 59 57 56 56 55 56 56 56 57 57 57 57 57 57 57 58 58 58 57 56 54 53 52 52 52 53 54 55 56 56 56 55 54 53 53 52 51 51 50 49 48 47 46 45 45 45 45 44 44 43 42 41 41 42 43 43 42 41 40 40 39
59 59 59 60 60 60 60 61 62 61 61 61 61 62 63 63 64 64 65 64 64 63 63 62 62 62 61 59 58 57 56 56 56 56 56 56 56 57 57 57 58 58 58 58 57 55 54 52 52 51 52 52 54 55 56 56 56 56 55 54 53 53 52 51 51 50 49 48 47 46 46 45 45 44 43 42 41 42 43 44 44 43 42 41 40 39
60 61 61 62 62 63 63 63 64 64 64 63 63 64 63 63 63 63 64 64 64 64 63 62 62 62 62 61 60 59 58 56 56 55 55 55 55 55 56 56 56 57 57 57 57 57 55 54 52 51 51 51 52 53 55 56 56 57 56 55 54 54 53 52 52 51 50 49 48 47 47 46 46 45 44 43 42 42 43 44 45 45 44 42 40 39
61 61 62 62 63 64 65 65 66 66 66 66 66 67 66 66 65 64 63 64 64 63 63 63 62 62 61 61 61 60 59 57 57 56 55 55 55 54 54 55 55 55 55 55 55 56 56 55 54 52 51 50 50 51 53 54 55 56 56 56 56 55 54 53 53 52 51 50 49 48 47 47 47 47 47 46 45 44 44 44 45 45 45 44 42 40
60 61 61 62 63 64 64 65 66 66 67 67 67 67 68 68 68 66 65 66 66 64 63 63 62 62 61 59 59 58 57 57 57 56 55 55 54 53 53 52 52 52 51 51 52 54 55 56 55 53 52 50 50 50 51 52 54 55 56 56 56 56 55 54 53 52 52 51 50 49 48 48 48 48 49 49 48 47 46 45 44 45 47 47 45 43
60 60 60 61 62 62 62 63 63 64 64 65 65 65 66 67 67 67 66 67 67 66 64 63 63 63 61 58 57 55 54 54 55 55 55 54 53 52 50 50 49 48 47 47 48 51 54 55 55 55 53 51 50 49 50 50 52 53 54 55 56 56 56 55 54 53 52 52 51 50 50 49 49 49 50 50 51 51 49 47 45 46 48 49 48 45
58 58 58 59 59 59 59 59 59 60 61 61 61 62 63 64 64 64 64 65 66 66 64 63 64 64 62 59 56 53 51 50 51 52 53 54 53 50 48 47 46 46 45 45 46 48 51 52 55 56 55 52 50 49 49 49 49 51 52 53 55 55 56 56 55 54 53 52 51 51 50 51 50 50 50 50 51 52 52 50 49 49 50 50 48 46
55 55 55 55 55 55 55 55 55 55 56 57 58 58 59 60 61 61 61 62 63 63 62 62 63 64 63 61 57 52 49 48 49 49 50 51 51 49 46 44 43 43 42 43 45 47 48 50 53 55 56 54 52 50 48 47 48 48 50 51 53 54 55 56 55 55 54 53 52 52 51 52 52 51 50 50 50 51 52 53 53 53 53 51 48 45
52 51 51 51 51 51 51 51 51 51 52 53 54 55 55 56 57 57 58 58 58 58 57 57 57 58 60 60 57 53 49 47 46 47 47 47 48 47 44 43 43 42 40 39 41 43 44 46 49 52 55 55 54 52 49 47 46 47 47 49 51 53 54 55 55 55 55 54 53 53 52 52 52 51 50 50 50 51 52 53 54 54 52 50 47 44
49 48 47 47 48 48 48 47 47 48 49 50 50 51 52 52 53 53 53 54 53 51 51 50 50 50 52 52 53 52 47 44 44 45 45 45 45 45 43 43 44 45 42 39 38 38 39 41 43 46 50 53 51 49 50 49 47 46 46 47 49 51 52 54 54 55 55 55 54 53 53 52 52 51 50 50 50 51 52 52 52 51 49 47 45 44
46 45 44 44 45 45 45 45 45 45 46 47 47 48 48 49 49 49 49 49 47 45 43 42 42 43 44 45 46 45 41 39 40 42 43 43 43 43 42 42 45 46 45 42 39 37 36 37 38 40 43 46 47 46 46 46 47 47 47 47 48 49 51 52 53 54 54 54 54 54 53 52 52 51 50 50 51 51 52 51 50 48 46 45 44 43
44 43 42 42 42 43 43 43 42 42 43 44 44 45 45 45 45 45 45 44 42 40 38 37 37 37 38 39 39 38 35 33 34 37 39 40 40 39 38 39 42 45 47 45 42 39 37 36 36 37 38 40 40 38 36 38 41 45 46 47 48 49 50 51 52 53 53 54 54 54 53 52 52 51 50 51 51 52 51 49 47 45 44 43 43 44
42 41 41 40 40 41 42 42 41 41 41 41 42 42 42 42 42 41 41 40 38 37 36 35 34 34 34 35 35 33 31 28 29 33 36 37 36 35 34 34 38 42 45 46 44 41 39 37 37 36 36 37 38 37 33 31 33 38 43 46 47 48 49 50 51 52 52 53 54 54 53 52 51 50 50 50 50 50 49 47 45 44 44 44 45 45
40 40 40 39 38 39 40 40 40 40 39 39 40 40 40 40 40 39 39 38 37 36 36 36 35 35 34 35 34 32 28 26 27 30 34 35 35 34 31 30 33 37 42 44 44 42 41 40 38 37 36 36 37 37 36 33 31 34 38 42 45 47 48 49 50 51 52 52 53 53 53 52 50 49 49 48 48 48 47 45 45 45 46 46 46 46
38 39 39 38 38 38 39 39 39 39 38 38 38 39 39 39 38 39 39 38 38 39 39 38 38 37 36 36 35 32 28 26 26 29 32 35 36 34 30 28 29 34 38 41 42 42 43 43 41 38 36 36 37 38 37 34 32 32 35 39 42 44 46 47 48 49 51 52 52 53 52 51 50 49 48 48 47 46 45 44 45 46 47 47 47 46
39 39 39 38 38 38 38 38 38 38 37 37 38 38 38 38 38 38 38 39 40 40 41 41 40 39 37 36 34 32 29 26 26 28 31 34 35 34 30 27 28 31 35 37 38 40 43 45 45 42 37 35 35 35 35 33 31 31 33 36 39 41 43 44 46 47 49 50 51 52 52 51 50 49 49 48 46 45 44 44 44 45 46 46 45 44
39 39 39 39 38 37 37 37 37 36 36 36 36 36 36 37 37 38 38 39 40 40 41 41 41 40 38 36 34 32 29 27 26 27 29 32 34 33 30 28 28 30 32 33 34 37 41 45 47 46 43 38 34 31 29 28 27 28 29 32 35 38 40 41 43 44 46 48 49 50 51 51 50 49 49 48 47 46 45 45 44 44 44 43 43 43
38 38 38 38 37 36 36 35 35 35 34 34 34 33 34 35 36 37 38 38 39 39 40 40 40 40 39 37 35 33 30 27 26 25 27 29 31 31 29 26 26 28 29 29 30 33 39 44 48 50 49 45 38 32 26 23 22 22 24 27 30 33 36 38 40 41 43 45 46 48 50 50 50 49 49 49 48 46 45 45 45 44 43 42 41 43
37 37 37 36 36 35 34 33 33 33 32 31 31 31 32 33 34 35 37 37 37 37 38 39 39 39 39 38 37 35 32 29 26 25 25 26 27 27 24 22 23 25 27 27 28 30 35 41 46 50 52 52 48 41 33 26 22 20 19 21 24 27 30 34 37 39 41 42 44 46 47 49 49 49 49 49 48 47 45 45 45 44 43 42 43 44
36 35 35 34 33 33 32 32 32 31 30 29 29 29 29 31 32 33 34 34 34 34 35 36 37 37 38 38 38 37 35 32 28 25 24 24 24 22 19 17 18 21 24 25 26 27 30 35 41 46 51 54 54 52 46 40 33 27 22 20 21 23 27 31 35 38 40 41 42 44 45 47 48 49 49 49 48 47 45 45 44 44 43 44 45 47
35 34 33 32 31 31 30 30 30 29 28 27 27 27 27 28 29 30 30 30 31 31 32 33 34 35 36 38 39 39 38 36 32 28 27 26 25 22 18 16 17 19 22 24 25 25 26 29 34 39 45 50 53 54 54 51 47 41 34 29 27 27 28 30 33 37 40 41 42 43 44 45 46 47 48 48 47 46 45 45 45 44 45 45 47 48
35 33 32 30 30 29 29 29 28 27 26 26 25 26 26 26 26 27 27 28 28 29 29 29 31 32 33 35 36 37 38 36 33 31 31 31 30 27 22 20 20 20 20 22 23 23 24 25 28 32 38 44 48 50 51 52 50 47 43 39 36 35 34 33 33 35 39 41 42 42 43 44 45 46 47 47 47 47 46 46 45 45 46 47 48 48
35 34 32 30 29 29 29 28 27 26 25 25 25 24 24 24 24 25 27 28 28 28 28 28 29 30 30 31 33 34 33 32 31 31 32 34 33 31 28 27 26 25 23 22 23 23 23 22 23 26 31 37 42 46 47 47 47 46 45 44 42 41 39 36 34 35 37 40 41 42 42 43 44 44 45 46 47 47 47 47 46 46 46 47 48 49
35 34 32 31 29 29 28 28 27 26 25 25 25 24 23 23 23 25 26 27 28 29 30 30 30 30 30 30 31 31 31 29 28 28 30 33 33 32 31 32 32 32 30 28 28 29 28 23 18 17 20 25 32 38 42 44 44 44 44 44 44 43 41 38 36 35 36 38 40 41 42 42 43 43 44 45 46 47 48 48 47 46 46 47 48 49
35 33 32 30 29 28 27 27 27 26 26 26 26 25 24 23 23 24 25 26 28 29 30 31 32 32 31 31 32 32 31 29 28 27 28 30 31 31 31 32 34 35 34 33 33 34 34 31 24 16 12 13 19 27 34 38 40 42 43 43 43 42 40 38 37 35 34 35 37 39 41 41 42 42 43 44 46 47 49 49 48 47 45 46 47 49
34 33 31 30 28 27 27 26 26 26 26 26 26 26 26 25 25 25 26 27 28 29 30 31 32 32 32 32 33 33 32 31 28 26 25 25 27 28 29 30 31 32 32 31 32 33 35 35 32 26 19 13 13 19 27 32 36 38 39 40 40 40 40 39 38 35 32 32 34 37 39 40 40 41 42 43 44 46 48 50 50 49 47 46 47 48
34 33 31 29 28 27 26 26 26 26 26 26 26 27 27 27 27 27 28 28 29 29 30 30 30 30 31 31 31 32 32 31 28 25 23 21 21 23 25 27 28 29 28 27 27 27 29 33 34 33 29 21 15 17 23 28 31 33 35 36 37 38 40 41 40 37 32 30 32 35 37 39 39 40 41 42 43 45 47 49 51 51 50 48 47 46
35 33 31 29 28 27 26 26 26 27 27 26 26 26 26 27 27 27 28 28 28 28 28 27 28 28 28 27 27 28 31 31 30 26 23 20 18 19 21 25 28 29 30 29 28 27 27 31 34 34 31 25 19 17 20 24 27 29 31 33 35 38 40 43 43 40 35 31 30 33 35 36 37 38 39 40 42 44 46 48 51 52 53 51 47 44
35 33 32 30 28 28 27 28 28 28 28 27 27 26 26 26 26 26 26 26 26 25 24 24 25 25 25 24 25 27 29 30 30 28 25 23 21 20 22 25 27 30 31 31 31 31 32 34 35 35 32 28 22 17 18 21 24 26 28 30 33 37 40 43 45 43 39 33 31 31 32 33 34 35 36 38 40 42 44 47 50 53 54 53 49 44
35 34 32 30 29 28 28 29 29 29 29 28 27 27 26 26 25 25 25 25 24 24 23 23 23 22 22 23 23 25 26 26 27 27 26 25 24 24 24 25 27 29 31 32 32 32 33 34 36 36 33 30 24 19 17 19 21 23 25 27 30 34 38 42 45 45 43 38 33 31 30 31 31 32 33 35 37 39 42 44 48 51 54 54 51 46
35 34 32 31 30 29 28 29 29 29 29 29 29 29 28 28 27 27 26 26 25 24 24 24 23 23 22 22 22 22 22 22 23 23 24 25 25 25 26 26 27 29 31 32 32 32 32 34 35 36 35 32 27 21 17 18 20 22 23 23 26 29 34 38 41 43 43 41 36 32 29 29 29 30 30 32 34 36 38 40 44 47 51 53 52 48
34 33 32 31 30 29 28 28 28 29 29 30 30 30 30 30 30 29 29 28 27 26 25 25 25 24 24 23 22 21 21 20 20 20 21 22 23 25 26 26 27 28 30 32 33 33 33 33 34 35 35 34 31 25 19 17 19 21 21 21 22 24 27 30 33 36 39 38 36 33 31 30 30 30 30 30 32 34 36 37 39 42 46 49 51 49
34 33 32 31 30 29 28 27 27 27 28 29 30 30 31 31 31 31 31 29 28 27 26 26 26 26 25 24 23 21 20 19 19 19 20 21 22 23 25 26 26 27 29 31 33 34 34 34 33 34 35 35 34 30 24 20 19 19 20 21 22 22 22 23 24 27 30 32 34 34 33 33 33 32 32 31 31 33 35 36 37 38 40 44 46 47
33 32 31 30 29 28 27 26 26 26 27 28 29 29 30 30 31 31 31 29 28 26 26 26 27 27 27 25 24 22 20 19 19 20 21 22 23 24 25 26 26 26 27 29 31 33 35 35 34 33 33 33 34 33 30 26 22 20 20 21 21 21 20 20 21 23 25 28 30 32 35 36 36 36 35 33 32 32 34 36 37 37 38 40 42 44
32 31 30 29 28 27 27 26 26 26 26 26 27 27 27 28 28 28 28 27 26 25 25 26 27 28 28 27 25 23 22 20 20 21 22 23 24 25 25 26 26 26 26 27 28 31 33 34 34 32 31 31 32 33 33 31 27 24 23 22 21 21 21 22 22 22 24 27 31 34 36 38 39 38 37 35 34 33 33 35 37 38 38 39 40 41
32 31 30 29 27 27 26 26 25 25 25 25 25 25 25 24 24 24 24 23 23 23 24 25 26 27 28 28 27 25 24 22 22 21 22 22 23 23 24 25 25 24 24 25 26 27 29 31 32 31 29 29 30 31 33 33 31 29 27 25 24 23 24 24 23 22 23 26 29 32 35 36 37 37 36 36 34 34 34 35 37 38 39 40 40 41
31 30 29 28 27 26 25 25 25 24 24 24 23 22 22 21 21 21 21 21 21 22 23 24 25 26 26 26 25 24 23 21 19 17 17 17 18 20 21 22 22 22 22 22 23 24 25 27 28 28 27 27 27 29 31 32 33 32 30 29 28 28 28 27 24 22 22 24 26 28 31 31 32 33 34 34 35 35 35 36 37 39 40 41 41 41
30 29 28 27 26 25 25 24 24 23 23 22 21 20 19 19 19 19 20 20 21 21 21 22 22 23 23 22 21 20 18 15 12 11 11 12 13 15 17 18 19 19 19 19 19 19 21 22 24 25 25 25 26 27 28 30 31 32 31 31 30 31 32 32 28 23 21 22 24 26 27 27 27 28 31 33 34 35 36 37 38 39 41 42 42 42
29 29 28 26 25 24 23 23 23 22 22 21 20 19 18 18 18 19 19 19 20 20 20 20 20 20 19 18 17 15 13 10 9 8 9 10 11 12 12 13 13 14 14 14 14 15 16 17 19 21 23 24 25 25 26 28 29 30 31 31 32 33 35 37 36 31 24 21 22 25 27 27 27 28 30 32 33 34 36 37 38 39 40 41 42 42
29 28 27 26 25 24 23 22 22 21 21 19 18 17 17 17 17 18 18 18 18 18 18 17 17 16 14 13 12 11 10 10 10 11 12 12 11 11 10 10 11 11 12 13 12 12 12 13 15 17 19 21 23 24 25 26 27 28 30 31 33 35 38 40 41 38 32 25 22 23 26 27 29 29 30 30 32 33 34 35 36 38 39 39 40 40
28 28 27 26 25 24 23 22 21 21 20 19 17 16 15 15 15 16 16 16 16 16 15 15 14 12 10 9 9 9 10 11 11 12 12 13 13 12 11 11 11 12 13 12 12 11 11 11 11 12 15 17 19 21 23 24 26 27 29 31 34 37 39 39 41 41 38 32 27 24 24 25 28 29 30 30 31 33 34 34 34 35 36 37 37 37
27 27 27 26 25 24 23 22 21 21 20 19 17 16 14 13 13 13 13 14 14 13 13 12 11 9 8 8 9 11 12 13 13 13 13 14 14 14 13 13 13 13 12 11 11 10 10 10 9 9 10 12 14 16 19 21 24 26 29 31 34 37 38 36 37 39 39 37 32 26 23 22 24 27 29 31 32 34 35 35 34 34 35 35 36 36
26 26 26 26 25 24 23 22 21 21 20 19 18 16 14 13 12 11 11 12 12 11 11 10 9 8 8 9 11 13 14 15 15 14 14 14 15 15 15 15 14 13 13 12 11 11 11 11 10 9 8 9 11 13 15 18 21 24 27 30 33 35 34 31 31 34 37 36 33 29 24 21 21 24 27 30 32 33 35 36 36 34 34 34 34 34
Wind_Direction
287 287 287 287 286 286 286 285 285 284 283 283 282 281 281 280 279 277 276 275 273 272 271 269 269 268 268 268 268 268 267 267 266 265 264 263 261 259 258 257 256 256 256 256 256 256 256 256 256 255 254 253 252 251 250 249 249 249 250 250 249 249 249 249 249 249 249 250 251 251 251 249 245 241 238 237 239 242 244 244 243 242 240 239 239 239
287 287 287 286 286 286 286 285 284 284 283 283 282 281 280 280 279 278 277 276 275 274 273 272 271 270 269 268 268 267 267 266 266 265 265 264 263 261 260 258 257 257 256 255 255 255 255 255 255 255 254 253 252 251 250 249 248 248 248 248 248 248 248 248 247 247 247 247 248 250 250 249 246 242 239 238 240 243 245 245 244 243 241 240 239 239
288 288 287 287 286 286 286 286 285 285 284 283 283 282 281 280 279 278 277 276 275 275 274 273 273 272 271 270 269 268 267 266 266 265 265 264 264 263 261 260 259 258 257 256 255 254 254 254 254 254 254 253 252 251 250 249 248 247 247 247 247 247 247 247 246 245 245 245 245 246 247 247 245 241 238 238 241 244 245 245 244 242 241 241 240 238
289 289 288 288 288 287 287 287 286 286 285 285 284 284 283 281 280 279 278 277 276 275 274 274 273 273 272 272 271 270 269 268 266 265 264 264 263 263 262 261 260 259 258 257 255 255 254 254 253 253 253 252 252 251 250 249 248 247 246 245 245 246 246 245 245 244 244 243 243 243 243 243 243 241 238 238 241 243 245 246 243 240 239 241 241 238
289 289 288 288 288 288 287 287 287 286 286 285 285 284 283 283 282 281 280 279 277 276 275 274 273 273 273 272 272 271 270 269 268 267 265 264 263 263 262 262 261 260 258 257 256 255 254 253 253 252 252 252 251 251 250 249 248 247 246 245 245 244 244 244 244 244 243 243 242 241 241 241 241 240 239 239 240 242 245 245 243 240 238 240 241 239
290 289 289 289 289 288 288 288 287 287 286 285 284 284 283 283 282 282 281 280 279 278 277 276 274 274 273 273 273 272 271 271 270 268 267 265 264 262 262 262 261 260 259 258 256 255 254 253 253 252 251 251 250 250 249 249 248 247 246 245 244 244 243 243 243 243 243 242 241 240 239 239 238 238 239 239 240 241 243 243 242 238 235 236 239 239
291 290 290 290 289 289 289 288 288 287 287 286 285 284 283 283 282 282 281 280 279 279 278 277 275 274 274 273 273 272 272 271 270 269 268 267 265 263 262 261 260 260 259 258 256 255 254 253 253 252 251 250 250 249 248 248 247 247 246 245 244 244 243 243 243 242 242 241 241 240 239 238 237 237 237 238 239 240 242 243 242 239 235 234 236 237
290 289 289 289 288 288 288 287 287 287 287 286 286 285 284 283 282 282 281 280 280 279 278 277 276 275 274 273 272 272 271 271 270 270 269 268 267 265 263 261 259 259 258 257 256 255 254 253 252 252 251 250 249 249 248 247 246 246 246 245 245 244 243 243 242 242 242 241 240 239 239 238 238 237 237 237 238 240 242 244 244 242 238 236 235 235
289 288 287 287 287 286 286 285 285 285 285 285 285 285 284 284 282 281 281 280 280 279 279 278 277 276 275 273 272 272 271 270 270 269 269 268 268 267 265 263 261 259 258 257 256 255 254 252 252 251 251 250 249 248 247 246 245 245 245 244 244 244 243 242 242 242 241 241 240 239 238 238 238 238 238 238 239 240 242 244 245 244 242 239 237 236
289 288 288 287 286 286 286 285 284 284 284 284 283 284 284 284 283 282 281 280 279 279 279 279 278 277 276 275 273 272 271 270 269 269 268 268 268 267 266 265 263 261 259 258 257 255 254 253 252 251 250 250 249 249 247 246 245 244 243 243 243 243 243 242 242 241 241 241 240 239 237 237 237 237 237 238 239 240 242 244 244 244 242 240 238 237
291 290 289 288 287 287 286 286 285 285 284 283 282 282 282 283 283 282 282 280 279 278 278 278 278 277 277 276 275 274 273 272 270 269 268 267 267 266 266 266 265 264 263 260 259 257 255 254 252 251 251 250 250 249 248 247 245 244 243 242 242 242 242 242 242 241 241 241 240 239 238 237 235 234 234 234 235 237 240 243 243 243 242 240 238 237
292 291 290 289 289 288 287 286 286 285 285 285 284 283 282 282 283 283 283 281 281 280 279 277 277 277 277 276 276 275 275 274 272 270 269 267 266 266 265 266 266 266 266 264 262 260 257 255 254 252 252 251 251 250 249 248 246 244 243 242 241 241 241 241 241 241 241 240 240 239 239 237 236 233 231 230 231 234 237 240 242 243 243 241 239 237
291 291 290 289 288 288 287 287 286 286 286 286 286 286 285 284 285 285 284 283 282 282 282 280 278 277 277 276 276 276 276 275 273 272 270 269 267 266 266 266 266 266 266 266 264 262 260 258 256 254 253 253 252 252 251 249 247 245 243 242 241 240 240 240 240 240 240 240 240 239 239 238 237 235 232 230 229 231 235 238 240 242 243 243 241 239
292 291 290 290 289 288 288 288 287 287 287 287 288 287 286 286 287 288 287 285 284 284 285 284 281 279 279 278 277 277 277 276 275 273 271 269 268 267 266 266 265 264 264 263 262 261 260 259 257 255 254 253 253 253 252 251 249 246 244 243 241 240 240 239 239 239 239 239 239 239 238 238 237 236 234 232 230 230 232 236 239 241 243 244 243 241
293 293 292 291 291 290 290 290 290 290 289 289 290 289 288 288 289 289 289 288 286 286 288 286 283 281 281 281 280 279 278 277 276 274 272 270 268 266 265 264 264 263 262 261 259 258 257 257 257 256 254 253 253 253 252 252 250 248 246 243 242 241 240 239 239 238 238 238 238 238 237 237 237 236 235 234 232 231 232 234 238 240 242 243 243 242
295 295 294 294 294 294 294 294 294 294 293 293 293 293 292 291 291 291 291 290 289 289 291 290 287 284 282 281 282 282 281 279 277 275 273 271 268 266 264 261 260 259 259 259 259 258 257 255 254 254 254 253 253 253 252 252 251 249 247 244 242 241 240 239 238 238 238 237 237 236 236 236 236 236 236 235 233 232 232 234 236 239 241 242 242 239
298 297 297 297 297 297 298 299 299 298 297 297 296 296 294 293 292 292 292 291 290 291 292 293 292 290 287 285 284 284 285 283 281 278 275 272 269 265 262 259 256 255 254 255 257 260 260 258 255 253 253 253 253 253 253 252 251 250 248 245 243 241 240 239 238 238 237 237 236 236 235 235 235 235 235 235 234 234 233 234 236 238 239 240 238 235
299 299 300 300 300 301 302 302 302 301 301 300 299 298 296 294 293 293 292 292 292 293 293 295 295 295 293 292 290 289 290 290 288 284 279 275 270 265 261 257 255 253 251 250 252 256 260 261 259 256 253 253 254 255 254 254 253 251 249 246 244 242 240 239 238 237 237 237 236 236 235 235 235 235 234 234 234 234 234 235 236 237 238 237 234 231
301 301 302 302 303 303 304 305 305 305 305 304 302 301 299 296 295 294 293 292 292 293 294 296 296 296 297 296 294 294 298 297 293 289 285 280 274 269 263 258 255 253 251 248 247 249 254 257 258 257 254 252 252 254 255 256 256 253 250 247 245 242 240 239 238 237 236 236 236 236 235 235 235 234 233 233 233 233 234 235 235 236 235 234 230 227
302 302 302 303 304 305 305 306 307 308 308 306 305 304 301 299 297 296 294 293 292 292 292 294 295 296 298 299 299 300 302 300 296 292 288 285 281 276 268 261 256 253 251 248 245 244 247 249 251 251 249 247 246 247 250 254 255 255 252 249 245 242 241 239 238 236 235 235 235 236 235 235 234 233 232 232 232 232 233 233 234 233 232 230 227 224
301 301 302 303 304 304 305 306 307 308 308 308 307 305 303 301 300 298 295 294 292 291 291 292 292 294 297 299 299 300 300 299 295 291 288 286 285 281 275 266 258 254 251 248 244 242 242 243 244 243 240 239 238 237 238 241 246 250 250 248 245 242 240 239 238 236 235 235 235 235 235 235 234 234 232 232 231 231 231 231 230 229 228 228 226 224
298 298 300 301 302 302 303 305 306 307 308 308 307 305 304 303 301 299 296 294 293 291 291 291 292 292 294 294 293 294 295 295 292 289 286 284 284 283 279 271 263 256 252 249 244 241 239 239 238 236 233 230 230 230 230 229 232 237 243 244 243 241 239 238 237 237 235 234 234 234 234 234 234 233 233 232 231 231 229 228 227 226 227 227 225 223
295 296 297 299 300 301 302 303 305 306 307 308 307 306 305 304 302 299 297 294 292 291 290 290 290 289 289 288 288 289 290 291 289 287 284 283 282 283 281 276 267 260 255 250 245 241 237 236 235 232 227 223 223 223 222 222 224 228 233 237 238 238 238 237 237 237 236 235 234 233 233 233 233 232 232 231 231 230 228 227 226 226 226 226 225 223
295 296 297 299 300 301 302 303 305 306 307 307 306 305 304 303 301 299 297 294 292 290 290 289 289 289 287 286 286 286 287 288 288 285 283 282 282 282 281 277 270 263 258 253 248 242 237 235 234 232 227 220 216 215 216 217 220 224 227 230 232 233 235 236 236 236 236 235 235 234 233 232 231 230 230 229 228 227 227 226 226 227 226 225 223 222
298 298 299 300 301 302 302 303 304 305 305 303 303 302 302 301 300 299 297 296 294 292 291 291 292 291 290 289 288 287 286 287 286 285 284 284 283 282 279 275 269 265 261 256 250 244 239 236 234 233 231 225 217 211 210 212 216 221 224 226 227 228 231 233 235 235 236 235 235 234 233 231 229 228 228 227 226 225 224 225 226 227 227 224 222 220
300 300 301 301 302 302 302 302 302 302 302 300 300 300 300 299 299 298 298 297 296 294 293 292 292 292 292 291 290 289 288 287 287 286 287 288 287 283 279 275 270 267 265 260 254 247 241 237 235 235 236 234 228 220 213 210 213 218 222 223 224 225 228 232 233 234 235 235 235 234 233 231 229 228 227 227 225 223 222 223 224 225 225 223 221 220
302 301 301 301 301 301 301 301 301 300 299 298 296 296 296 296 296 296 296 297 296 295 293 291 290 290 289 289 288 288 288 288 289 290 292 292 289 286 282 279 274 271 269 265 258 251 244 240 237 237 239 240 239 235 229 223 220 222 225 225 225 226 229 233 234 235 235 235 234 234 233 232 230 228 227 226 225 222 220 221 222 223 223 222 221 220
303 302 302 301 300 299 299 299 299 299 298 296 294 292 292 291 291 292 293 295 296 295 292 290 289 289 287 286 285 284 285 285 288 291 293 293 290 288 288 285 279 275 272 269 264 257 250 244 240 238 240 243 246 246 244 241 239 239 239 237 234 233 235 237 238 239 238 236 235 234 233 232 230 229 227 226 224 222 220 220 220 221 221 221 220 221
305 304 302 301 300 299 298 298 298 298 298 297 295 292 289 287 287 288 291 294 295 295 294 292 291 289 288 286 284 283 282 283 284 287 289 288 287 287 290 286 280 277 278 278 273 265 257 250 245 242 241 244 248 251 253 252 251 250 251 250 247 243 242 242 244 244 243 240 237 235 234 233 231 230 228 226 223 220 218 219 219 220 220 220 220 220
309 307 304 302 301 300 299 298 298 298 298 299 298 295 290 286 285 286 289 291 294 296 297 296 295 292 290 288 286 285 283 282 284 286 287 286 284 284 284 279 275 278 286 288 285 276 266 256 249 245 243 244 247 251 255 256 255 254 253 251 249 247 245 244 245 246 246 244 240 237 235 233 232 230 228 226 222 219 217 217 218 219 219 220 220 221
312 309 307 304 302 301 300 300 299 299 300 300 300 298 293 287 284 283 285 289 293 297 298 298 297 296 294 292 291 289 286 285 285 287 289 288 285 281 277 272 271 274 281 286 290 289 282 267 255 248 245 244 245 248 251 253 253 253 251 249 248 247 245 242 241 241 242 242 241 238 235 233 231 230 228 226 223 219 216 216 217 218 219 219 219 220
313 311 308 306 303 301 300 300 300 300 299 300 300 299 295 290 285 282 283 286 290 293 295 296 296 295 294 293 291 290 289 288 289 290 292 291 287 281 274 269 268 269 272 277 285 291 289 278 264 249 243 243 243 244 245 246 248 248 247 247 246 244 242 238 234 233 234 235 236 236 234 232 230 228 227 225 223 219 217 215 216 217 219 219 219 219
314 312 309 306 304 301 300 300 300 299 298 297 297 297 297 294 291 288 287 288 290 292 294 295 295 294 292 290 289 288 289 290 291 293 294 294 290 283 274 268 267 268 272 278 285 288 287 280 272 261 247 238 238 239 239 240 241 242 242 242 242 240 236 231 228 227 226 227 229 231 231 230 228 227 225 224 222 220 217 215 215 216 218 219 218 217
315 313 311 308 304 301 300 299 298 298 297 295 294 294 295 296 296 296 296 295 296 296 297 296 295 293 291 289 288 288 288 287 289 293 297 298 293 286 278 273 272 274 278 284 290 292 290 285 278 271 265 256 238 232 233 234 235 236 237 237 236 234 229 225 224 224 223 221 222 225 228 228 227 225 224 222 221 219 217 215 214 214 217 220 220 216
316 314 312 308 305 301 298 296 295 295 294 293 292 292 293 294 296 298 299 300 300 299 298 297 295 293 291 290 290 289 287 285 286 292 298 298 294 288 283 278 276 276 279 282 285 289 292 288 281 274 271 269 254 232 229 230 232 232 232 233 231 228 224 222 223 224 223 219 218 221 225 226 225 224 222 221 220 218 217 215 214 214 216 220 222 219
316 315 313 309 305 300 296 293 291 291 290 290 291 291 292 294 295 297 299 300 300 300 298 296 295 293 291 290 289 286 284 282 284 288 294 296 292 287 282 277 273 272 273 274 276 279 282 281 277 273 272 273 265 241 226 226 228 229 229 229 227 225 223 222 224 226 226 221 218 218 221 223 223 223 222 220 219 218 216 215 214 214 216 220 223 221
317 315 314 311 306 301 296 292 289 288 288 289 290 291 292 294 296 298 300 301 300 299 297 295 294 294 293 290 286 284 283 282 283 285 288 291 292 288 283 278 275 275 277 279 280 280 280 279 275 272 271 273 270 253 228 222 224 227 226 225 224 224 223 224 226 228 229 226 220 216 217 219 220 221 221 220 219 217 216 215 214 214 216 220 223 223
317 316 315 312 308 303 298 293 291 289 289 289 289 290 292 294 296 298 300 301 300 298 295 293 293 294 294 293 292 290 289 288 287 286 286 288 290 290 289 285 282 281 283 285 286 286 285 283 279 276 273 273 271 261 237 222 220 222 223 222 222 223 224 226 228 231 233 231 226 219 216 216 217 219 220 220 219 217 215 214 214 215 216 219 221 223
317 316 315 313 311 307 303 299 295 293 291 290 289 290 290 292 293 295 297 298 298 296 293 291 290 291 292 294 296 297 297 296 294 291 290 290 290 290 290 288 286 285 285 286 288 288 287 286 283 281 278 276 273 265 244 225 218 218 218 219 221 223 225 228 231 235 237 237 233 228 221 218 217 218 219 219 218 216 214 214 214 215 216 218 220 222
318 317 316 315 313 311 308 304 300 296 292 290 289 289 289 289 290 291 292 293 293 292 289 287 286 286 288 291 294 297 299 300 300 299 297 296 294 293 291 289 287 285 284 284 285 286 286 285 284 282 280 278 276 270 256 233 221 217 215 213 214 219 224 227 232 237 240 240 239 235 230 225 222 221 220 220 219 216 213 212 213 214 216 217 218 220
320 318 317 316 315 313 309 306 301 297 294 292 290 289 289 289 289 289 289 289 288 287 285 283 283 283 284 286 289 293 297 300 302 304 304 303 300 297 293 290 286 283 281 280 280 281 282 283 283 282 280 278 276 272 265 250 233 222 217 214 213 214 216 220 226 233 237 238 238 235 232 229 226 224 223 222 220 217 214 211 210 212 214 216 217 218
322 320 319 318 316 313 310 307 303 299 296 294 292 291 290 290 290 290 290 289 288 286 284 282 281 280 280 281 283 285 289 293 298 302 304 303 301 298 294 290 286 282 278 275 274 275 277 279 280 281 280 278 275 272 268 261 250 238 231 226 222 216 211 211 217 223 227 229 232 232 229 228 226 225 224 223 221 218 215 211 208 208 211 213 215 216
324 323 321 319 317 314 311 309 306 303 300 298 297 296 295 294 293 293 292 292 291 289 287 285 283 282 282 282 282 282 283 286 291 296 299 299 297 294 290 287 284 280 277 273 270 269 270 273 275 277 278 276 273 270 267 263 259 254 249 243 235 225 215 209 208 212 216 221 225 226 226 226 225 224 222 221 219 217 215 211 208 206 208 211 213 214
326 325 323 321 319 316 313 311 308 306 304 303 302 301 300 299 298 297 297 296 295 293 292 289 288 287 287 287 287 286 285 286 289 292 294 293 291 288 286 283 281 279 276 273 270 267 266 268 270 273 274 273 271 267 264 261 259 258 257 254 248 238 226 214 204 200 205 214 220 223 223 224 223 222 220 218 216 215 213 211 208 206 207 210 212 213
327 326 324 323 320 318 316 313 311 309 308 307 307 306 304 302 301 301 302 302 301 299 297 295 294 294 294 294 294 293 292 291 291 291 290 288 287 285 283 282 280 278 276 274 271 268 266 265 266 268 269 268 266 264 261 258 257 256 256 256 254 249 240 226 210 196 194 201 210 216 218 219 219 218 217 215 213 212 211 210 208 207 207 209 211 212
327 327 326 324 322 320 318 316 313 312 311 310 310 308 306 304 302 302 303 304 304 303 302 300 300 300 301 302 301 301 300 299 298 295 293 291 289 287 285 284 282 281 280 278 275 272 268 266 264 264 264 263 261 259 257 255 254 252 252 252 252 252 249 240 228 212 197 193 197 203 209 211 213 214 215 213 211 209 209 208 208 207 208 209 210 211
327 327 327 326 324 322 320 318 316 314 313 313 312 310 307 305 303 302 303 303 303 303 303 303 304 304 305 307 308 307 306 304 304 305 306 303 299 293 290 288 289 290 290 288 285 280 274 269 264 262 260 259 257 255 253 252 250 249 247 246 246 247 248 247 241 232 218 203 195 196 200 203 205 208 211 212 210 207 206 206 207 207 208 209 210 211
328 328 328 327 326 324 323 321 319 317 315 315 314 312 309 306 303 302 301 301 301 301 302 303 304 305 308 310 310 308 303 300 301 306 309 307 301 294 287 287 291 295 298 299 298 294 287 278 269 263 259 256 254 252 249 247 245 243 242 240 240 241 244 248 247 242 234 223 212 204 201 199 198 199 202 206 206 205 203 203 205 206 207 208 209 210
329 329 328 328 327 326 325 323 321 318 316 315 314 312 309 305 302 300 298 297 297 298 299 301 302 305 308 309 306 301 295 292 295 299 303 303 298 289 280 277 281 287 292 295 298 299 299 292 281 270 263 258 255 251 247 243 241 238 237 235 234 236 241 247 248 246 241 236 230 221 212 202 195 193 194 197 200 201 200 199 200 202 204 205 206 206
329 329 329 328 328 327 327 325 323 321 318 315 313 310 307 303 298 295 292 291 291 293 294 296 299 302 304 305 302 297 292 291 294 298 303 304 300 292 280 273 272 277 283 287 291 295 299 298 293 282 272 265 261 256 250 244 239 236 234 231 231 233 239 245 249 247 243 240 237 233 226 212 198 190 188 190 194 196 197 196 195 196 199 201 202 202
330 329 328 328 328 328 328 327 325 323 320 316 313 309 305 301 295 289 286 284 284 285 286 288 291 294 299 303 304 301 296 296 298 303 308 310 307 299 289 279 274 275 278 283 290 299 305 306 301 290 277 270 268 264 257 249 242 237 234 231 231 233 239 245 249 248 245 242 239 238 235 225 207 193 187 188 190 191 193 193 191 190 192 195 197 198
Height
3001 3000 3000 3000 2999 2998 2997 2997 2997 2996 2995 2995 2995 2995 2995 2995 2995 2995 2996 2996 2996 2996 2995 2995 2994 2994 2994 2994 2995 2995 2996 2996 2996 2997 2997 2998 2998 2998 2999 3000 3000 3001 3002 3002 3002 3002 3002 3003 3003 3004 3005 3006 3006 3007 3008 3009 3009 3010 3011 3012 3013 3014 3016 3016 3017 3018 3018 3019 3020 3020 3022 3023 3024 3025 3026 3027 3027 3027 3028 3029 3029 3030 3031 3031 3032 3033
2998 2997 2996 2995 2994 2993 2992 2991 2992 2991 2989 2989 2989 2989 2989 2989 2988 2989 2989 2989 2989 2989 2988 2988 2988 2988 2988 2988 2989 2989 2990 2991 2991 2991 2992 2992 2992 2993 2993 2994 2995 2996 2996 2997 2997 2998 2998 2998 2998 2999 3000 3001 3002 3003 3003 3004 3005 3006 3007 3008 3009 3010 3011 3012 3013 3014 3015 3016 3016 3017 3018 3019 3021 3022 3024 3025 3025 3024 3025 3026 3027 3027 3028 3029 3029 3030
2993 2992 2991 2990 2990 2989 2987 2986 2986 2986 2985 2983 2983 2983 2983 2983 2982 2982 2983 2983 2983 2982 2982 2982 2981 2981 2981 2982 2982 2983 2984 2984 2985 2986 2986 2987 2987 2987 2988 2988 2989 2990 2991 2992 2992 2993 2993 2993 2994 2994 2995 2996 2997 2998 2999 3000 3001 3002 3003 3004 3005 3006 3007 3008 3009 3010 3012 3013 3013 3014 3015 3016 3017 3019 3020 3022 3022 3022 3022 3023 3023 3024 3025 3026 3027 3027
2989 2988 2986 2985 2985 2984 2983 2982 2981 2980 2979 2978 2977 2977 2977 2976 2976 2976 2976 2976 2976 2976 2976 2976 2975 2975 2974 2974 2975 2976 2977 2978 2979 2980 2980 2981 2981 2982 2982 2983 2983 2984 2985 2986 2987 2988 2988 2988 2989 2989 2990 2991 2992 2993 2994 2995 2996 2997 2998 2999 3000 3001 3003 3004 3005 3006 3008 3009 3010 3011 3012 3013 3014 3015 3016 3018 3018 3018 3019 3020 3021 3021 3023 3024 3025 3025
2986 2984 2981 2980 2980 2979 2978 2977 2976 2975 2974 2973 2972 2972 2971 2971 2970 2969 2969 2970 2970 2970 2969 2970 2969 2969 2968 2968 2968 2969 2970 2970 2971 2973 2973 2974 2975 2976 2976 2977 2978 2978 2979 2980 2981 2982 2983 2983 2984 2984 2985 2986 2987 2988 2989 2990 2991 2992 2993 2995 2996 2997 2998 2999 3001 3002 3004 3005 3006 3007 3008 3009 3010 3011 3013 3013 3014 3015 3016 3017 3018 3018 3019 3021 3022 3022
2982 2980 2978 2976 2975 2974 2973 2973 2972 2970 2968 2968 2967 2966 2966 2965 2965 2964 2964 2964 2964 2964 2963 2963 2963 2963 2963 2963 2963 2963 2963 2963 2964 2965 2966 2967 2968 2969 2971 2972 2972 2973 2973 2974 2975 2976 2977 2978 2978 2979 2980 2980 2981 2982 2983 2985 2986 2987 2988 2990 2991 2992 2993 2995 2996 2998 2999 3001 3002 3003 3004 3005 3007 3008 3009 3010 3011 3012 3013 3014 3015 3015 3016 3017 3019 3019
2977 2976 2974 2973 2971 2969 2968 2968 2966 2965 2963 2962 2961 2960 2960 2960 2959 2959 2958 2958 2958 2958 2958 2957 2958 2958 2958 2957 2957 2957 2957 2956 2957 2957 2958 2959 2961 2962 2964 2966 2967 2967 2968 2968 2969 2971 2972 2973 2973 2974 2974 2975 2976 2977 2978 2979 2981 2982 2983 2985 2986 2988 2989 2990 2992 2993 2995 2996 2998 2999 3000 3002 3003 3004 3005 3006 3008 3009 3010 3011 3012 3012 3013 3014 3015 3017
2973 2972 2971 2969 2968 2966 2964 2963 2962 2960 2958 2957 2955 2954 2953 2953 2953 2953 2952 2952 2952 2952 2951 2951 2951 2952 2952 2952 2952 2951 2951 2950 2950 2950 2951 2952 2953 2954 2956 2958 2961 2962 2962 2963 2963 2965 2966 2967 2968 2968 2969 2970 2971 2972 2973 2974 2976 2977 2978 2980 2981 2983 2984 2985 2987 2988 2990 2992 2993 2995 2996 2997 2998 3000 3001 3002 3004 3006 3007 3008 3008 3009 3009 3011 3012 3013
2969 2967 2966 2965 2963 2962 2960 2959 2958 2956 2955 2953 2950 2948 2947 2947 2946 2946 2946 2946 2946 2946 2945 2944 2944 2945 2945 2946 2946 2946 2945 2945 2945 2945 2945 2945 2945 2947 2948 2950 2952 2954 2955 2956 2958 2959 2960 2962 2963 2963 2964 2964 2965 2966 2968 2969 2970 2972 2973 2975 2976 2978 2979 2981 2982 2983 2985 2987 2988 2990 2992 2993 2995 2996 2997 2999 3000 3002 3003 3004 3005 3006 3006 3008 3009 3010
2964 2963 2961 2959 2958 2957 2956 2954 2952 2951 2950 2950 2947 2944 2942 2941 2940 2939 2938 2939 2940 2939 2939 2938 2938 2938 2938 2939 2940 2940 2940 2939 2940 2940 2940 2939 2940 2940 2941 2942 2944 2946 2948 2950 2951 2953 2954 2956 2957 2958 2959 2960 2960 2961 2962 2963 2965 2967 2968 2970 2971 2973 2974 2976 2977 2979 2980 2982 2984 2985 2987 2989 2991 2992 2994 2996 2998 2999 3000 3001 3001 3002 3003 3004 3005 3007
2958 2956 2955 2954 2952 2950 2949 2948 2946 2944 2943 2944 2943 2940 2938 2937 2935 2933 2932 2932 2932 2933 2933 2933 2932 2932 2931 2932 2933 2933 2933 2933 2934 2934 2934 2934 2935 2935 2935 2935 2937 2938 2941 2943 2945 2947 2948 2950 2952 2953 2954 2955 2956 2956 2957 2958 2960 2962 2963 2965 2966 2968 2969 2971 2972 2974 2975 2977 2979 2981 2983 2984 2986 2988 2990 2992 2994 2996 2997 2998 2998 2998 2998 3000 3002 3003
2953 2951 2950 2949 2947 2945 2943 2942 2941 2939 2937 2936 2935 2933 2932 2931 2929 2928 2927 2926 2925 2925 2926 2926 2926 2926 2926 2926 2926 2926 2927 2927 2927 2927 2928 2928 2929 2930 2930 2930 2932 2933 2935 2937 2939 2941 2942 2944 2946 2948 2949 2950 2951 2951 2952 2953 2955 2956 2958 2960 2961 2963 2964 2966 2968 2969 2971 2973 2974 2976 2978 2980 2981 2983 2985 2988 2990 2991 2993 2994 2994 2994 2994 2996 2998 2999
2948 2947 2946 2944 2942 2940 2938 2937 2936 2934 2932 2930 2928 2927 2925 2923 2922 2922 2922 2920 2918 2918 2918 2918 2918 2919 2920 2921 2921 2921 2921 2921 2920 2920 2921 2923 2923 2924 2925 2926 2927 2928 2930 2932 2933 2935 2936 2938 2940 2942 2943 2945 2946 2946 2947 2948 2949 2951 2953 2955 2956 2958 2960 2961 2963 2964 2966 2968 2969 2971 2973 2975 2977 2978 2980 2982 2984 2986 2988 2990 2990 2990 2991 2993 2994 2995
2944 2942 2941 2940 2938 2935 2934 2933 2931 2929 2928 2926 2924 2923 2921 2918 2917 2916 2915 2913 2912 2911 2911 2912 2912 2912 2913 2914 2916 2916 2916 2915 2914 2914 2915 2917 2918 2919 2920 2921 2922 2923 2924 2926 2928 2929 2931 2933 2933 2935 2938 2939 2941 2941 2942 2943 2944 2946 2948 2949 2951 2953 2955 2957 2958 2959 2961 2963 2965 2967 2968 2970 2972 2973 2975 2977 2979 2981 2983 2985 2986 2986 2987 2988 2990 2992
2939 2938 2936 2934 2933 2931 2930 2928 2927 2926 2924 2922 2920 2919 2917 2915 2913 2911 2910 2908 2907 2906 2905 2905 2905 2905 2905 2908 2910 2911 2911 2909 2909 2909 2909 2911 2912 2914 2916 2917 2917 2918 2919 2921 2922 2923 2925 2927 2928 2928 2931 2933 2935 2936 2937 2938 2939 2941 2943 2944 2946 2948 2949 2951 2953 2955 2956 2958 2960 2962 2964 2966 2967 2969 2970 2972 2974 2976 2978 2980 2981 2982 2983 2985 2987 2989
2934 2933 2932 2930 2928 2927 2926 2925 2924 2923 2920 2918 2916 2915 2914 2912 2909 2907 2906 2905 2903 2901 2900 2900 2899 2898 2899 2901 2903 2905 2905 2904 2904 2903 2904 2905 2907 2909 2911 2912 2912 2913 2915 2916 2917 2917 2918 2920 2923 2924 2925 2927 2929 2931 2932 2933 2934 2936 2937 2939 2941 2942 2944 2946 2948 2949 2951 2953 2955 2957 2958 2961 2963 2964 2965 2968 2969 2972 2973 2975 2977 2978 2979 2981 2983 2985
2930 2929 2928 2926 2925 2923 2922 2921 2921 2919 2917 2915 2913 2912 2910 2908 2906 2904 2903 2902 2900 2898 2897 2896 2895 2894 2893 2893 2896 2899 2900 2899 2899 2898 2900 2901 2902 2904 2907 2908 2907 2908 2909 2912 2913 2913 2913 2914 2916 2918 2920 2922 2923 2925 2927 2928 2929 2931 2932 2934 2935 2937 2938 2940 2942 2944 2946 2947 2949 2951 2953 2955 2957 2959 2961 2963 2965 2967 2969 2971 2972 2974 2975 2977 2979 2981
2927 2925 2924 2923 2921 2920 2918 2918 2917 2915 2914 2912 2910 2908 2906 2905 2903 2902 2900 2898 2897 2896 2894 2893 2892 2891 2890 2889 2890 2892 2895 2895 2894 2893 2894 2895 2897 2899 2902 2903 2903 2902 2903 2906 2908 2910 2910 2910 2911 2912 2914 2917 2919 2920 2922 2923 2924 2926 2927 2928 2930 2931 2933 2934 2936 2938 2941 2942 2944 2946 2948 2950 2952 2954 2956 2958 2960 2962 2964 2966 2968 2969 2971 2973 2975 2977
2923 2922 2921 2920 2918 2916 2915 2914 2913 2912 2910 2908 2906 2904 2903 2901 2900 2898 2897 2896 2894 2893 2892 2890 2889 2888 2888 2887 2887 2888 2890 2892 2890 2888 2887 2888 2890 2893 2897 2899 2898 2898 2898 2901 2903 2905 2906 2906 2907 2907 2909 2912 2915 2918 2918 2919 2919 2920 2922 2923 2925 2926 2928 2929 2931 2933 2935 2937 2939 2941 2943 2945 2947 2949 2951 2954 2956 2958 2959 2961 2963 2965 2967 2969 2971 2973
2920 2919 2918 2917 2915 2913 2912 2910 2910 2909 2908 2905 2903 2901 2899 2897 2896 2895 2894 2893 2892 2890 2889 2888 2887 2886 2886 2885 2885 2885 2887 2888 2887 2884 2882 2883 2884 2887 2891 2893 2893 2892 2893 2895 2898 2901 2902 2903 2903 2903 2904 2906 2908 2912 2916 2917 2917 2916 2916 2918 2919 2921 2922 2924 2925 2927 2929 2932 2934 2936 2938 2939 2942 2944 2946 2949 2951 2953 2955 2957 2958 2961 2963 2965 2967 2969
2917 2916 2915 2914 2913 2911 2908 2907 2907 2906 2905 2903 2900 2898 2896 2894 2893 2892 2891 2890 2889 2888 2887 2886 2884 2883 2883 2883 2882 2883 2884 2885 2884 2881 2879 2878 2879 2881 2885 2888 2888 2887 2887 2889 2893 2896 2898 2898 2898 2899 2900 2901 2903 2905 2907 2911 2913 2914 2912 2912 2913 2915 2917 2918 2920 2922 2924 2926 2928 2930 2932 2934 2937 2939 2941 2943 2946 2948 2950 2953 2955 2958 2960 2962 2964 2966
2915 2913 2912 2912 2910 2908 2906 2904 2903 2903 2902 2900 2898 2895 2893 2892 2890 2889 2888 2887 2886 2885 2884 2883 2882 2881 2881 2880 2879 2880 2881 2882 2881 2878 2876 2874 2874 2876 2880 2882 2883 2882 2882 2884 2888 2891 2893 2893 2894 2895 2895 2896 2898 2900 2901 2903 2905 2907 2908 2907 2908 2910 2912 2913 2915 2917 2919 2921 2923 2925 2928 2929 2932 2934 2937 2939 2941 2943 2946 2948 2951 2953 2956 2958 2960 2962
2912 2911 2909 2908 2908 2906 2904 2902 2901 2899 2898 2897 2895 2893 2891 2890 2888 2887 2885 2884 2883 2882 2881 2880 2879 2878 2878 2877 2877 2877 2879 2880 2878 2877 2874 2872 2870 2871 2875 2878 2878 2877 2877 2879 2883 2886 2888 2889 2889 2890 2891 2891 2893 2895 2897 2897 2897 2898 2900 2901 2903 2905 2907 2909 2910 2912 2914 2916 2918 2920 2922 2925 2927 2930 2933 2935 2937 2939 2942 2944 2947 2949 2951 2953 2955 2958
2910 2908 2907 2906 2904 2903 2901 2899 2898 2897 2895 2894 2893 2891 2889 2888 2887 2885 2883 2882 2881 2880 2878 2877 2876 2876 2875 2875 2875 2875 2876 2877 2876 2874 2872 2869 2867 2868 2871 2873 2874 2873 2873 2875 2878 2882 2883 2884 2885 2886 2886 2887 2888 2889 2891 2892 2892 2893 2894 2896 2898 2901 2903 2904 2906 2908 2909 2911 2913 2915 2917 2920 2923 2926 2928 2930 2933 2935 2938 2940 2943 2945 2947 2949 2952 2954
2907 2905 2904 2903 2901 2900 2898 2897 2896 2894 2893 2892 2891 2889 2887 2886 2885 2883 2881 2880 2879 2878 2876 2875 2874 2873 2872 2873 2873 2873 2873 2874 2874 2873 2870 2868 2866 2865 2868 2869 2869 2869 2868 2871 2875 2878 2878 2878 2880 2881 2882 2882 2883 2884 2885 2886 2888 2889 2890 2892 2893 2896 2899 2901 2902 2904 2905 2907 2908 2911 2913 2915 2918 2921 2923 2926 2928 2931 2934 2937 2939 2941 2943 2945 2948 2950
2904 2903 2901 2900 2898 2897 2896 2895 2894 2892 2891 2890 2888 2887 2885 2883 2882 2880 2879 2878 2877 2876 2874 2873 2872 2870 2870 2870 2870 2870 2871 2872 2872 2871 2869 2867 2864 2863 2864 2866 2867 2866 2866 2868 2871 2873 2873 2873 2875 2876 2877 2877 2878 2879 2880 2882 2883 2885 2886 2888 2889 2891 2894 2897 2898 2899 2901 2903 2904 2906 2908 2910 2913 2916 2919 2922 2924 2927 2930 2933 2935 2937 2939 2942 2944 2947
2902 2901 2899 2898 2896 2895 2893 2893 2891 2890 2889 2888 2886 2885 2883 2882 2880 2878 2877 2876 2875 2874 2873 2871 2869 2868 2868 2868 2868 2868 2868 2870 2870 2869 2867 2865 2863 2862 2862 2864 2864 2864 2864 2864 2866 2868 2869 2869 2871 2873 2873 2873 2873 2874 2875 2878 2880 2881 2883 2884 2885 2887 2890 2893 2895 2896 2897 2898 2900 2902 2903 2906 2908 2911 2914 2917 2919 2923 2926 2928 2931 2933 2935 2938 2940 2943
2900 2898 2897 2895 2894 2893 2891 2890 2889 2888 2887 2885 2884 2883 2882 2880 2879 2877 2875 2874 2873 2872 2871 2869 2868 2867 2866 2866 2865 2865 2866 2867 2868 2867 2866 2864 2862 2861 2861 2862 2863 2862 2862 2862 2863 2864 2866 2867 2868 2870 2870 2870 2869 2869 2870 2873 2875 2877 2879 2880 2881 2883 2886 2889 2891 2892 2892 2894 2896 2898 2899 2902 2904 2907 2909 2913 2915 2918 2922 2925 2927 2929 2932 2934 2936 2938
2897 2896 2894 2893 2891 2890 2888 2888 2886 2885 2884 2883 2882 2881 2880 2879 2877 2875 2874 2873 2872 2871 2869 2868 2866 2865 2864 2863 2863 2863 2863 2864 2865 2865 2864 2862 2861 2860 2860 2860 2860 2860 2860 2860 2860 2861 2863 2864 2865 2867 2868 2868 2867 2866 2866 2868 2870 2873 2875 2877 2878 2880 2882 2884 2886 2888 2888 2890 2892 2894 2896 2898 2900 2903 2905 2908 2911 2915 2918 2921 2923 2926 2928 2930 2932 2934
2893 2892 2891 2889 2888 2887 2886 2884 2883 2883 2882 2881 2880 2878 2878 2877 2875 2874 2873 2872 2870 2869 2867 2866 2865 2864 2863 2862 2861 2860 2860 2861 2863 2863 2862 2860 2859 2858 2859 2859 2858 2858 2860 2860 2859 2858 2859 2860 2862 2864 2865 2865 2865 2864 2863 2864 2866 2869 2872 2873 2875 2877 2879 2881 2883 2884 2885 2886 2888 2890 2892 2894 2897 2899 2902 2904 2908 2911 2914 2917 2920 2922 2924 2926 2928 2930
2889 2888 2887 2886 2885 2884 2883 2882 2881 2880 2879 2878 2878 2877 2875 2874 2873 2873 2872 2870 2869 2867 2866 2865 2864 2863 2862 2861 2860 2858 2858 2859 2861 2861 2859 2858 2856 2856 2857 2857 2855 2855 2857 2858 2858 2856 2854 2855 2857 2858 2860 2860 2861 2861 2861 2862 2863 2865 2868 2870 2872 2874 2876 2878 2880 2881 2882 2883 2884 2886 2888 2891 2893 2895 2898 2901 2903 2907 2910 2913 2916 2918 2920 2923 2925 2927
2886 2885 2884 2883 2882 2881 2880 2879 2878 2878 2877 2876 2875 2874 2873 2873 2872 2871 2870 2869 2868 2866 2865 2864 2863 2862 2861 2860 2859 2858 2857 2857 2858 2858 2858 2856 2854 2853 2854 2854 2853 2852 2852 2853 2853 2853 2851 2851 2851 2853 2854 2855 2856 2857 2858 2859 2861 2862 2864 2866 2868 2870 2873 2876 2877 2878 2878 2879 2880 2882 2884 2887 2889 2892 2894 2897 2900 2903 2906 2909 2912 2914 2917 2919 2921 2923
2883 2882 2881 2880 2879 2878 2878 2877 2876 2875 2874 2874 2873 2873 2872 2871 2870 2869 2868 2867 2867 2865 2863 2862 2861 2860 2859 2858 2857 2856 2856 2856 2856 2856 2856 2855 2853 2851 2850 2851 2850 2849 2849 2849 2850 2850 2849 2848 2848 2848 2849 2850 2851 2852 2853 2855 2857 2858 2860 2862 2864 2867 2870 2872 2874 2874 2874 2875 2876 2878 2880 2883 2885 2888 2890 2893 2896 2899 2902 2905 2908 2910 2913 2916 2918 2919
2881 2880 2878 2878 2877 2876 2875 2874 2874 2873 2872 2872 2871 2870 2869 2869 2868 2867 2866 2865 2864 2863 2862 2861 2859 2858 2857 2856 2855 2854 2854 2854 2854 2854 2853 2853 2852 2849 2848 2848 2848 2848 2849 2849 2850 2849 2848 2847 2846 2846 2846 2846 2847 2848 2849 2851 2853 2854 2857 2859 2861 2863 2866 2868 2870 2871 2871 2871 2873 2875 2877 2879 2882 2884 2887 2889 2892 2895 2898 2901 2904 2907 2909 2912 2914 2916
2878 2877 2876 2875 2874 2873 2872 2872 2871 2870 2870 2869 2868 2868 2867 2866 2866 2865 2864 2863 2862 2861 2860 2858 2857 2856 2855 2854 2853 2853 2852 2852 2852 2852 2851 2851 2850 2849 2848 2847 2847 2848 2848 2848 2848 2848 2847 2845 2844 2843 2843 2844 2845 2846 2847 2848 2849 2851 2853 2856 2858 2860 2863 2865 2866 2867 2867 2868 2870 2872 2874 2876 2878 2880 2883 2885 2888 2891 2894 2897 2900 2903 2906 2908 2911 2913
2876 2875 2874 2873 2872 2871 2870 2869 2868 2868 2867 2867 2866 2865 2865 2864 2863 2862 2862 2861 2860 2859 2858 2856 2855 2854 2853 2853 2853 2852 2850 2850 2850 2850 2849 2848 2848 2848 2847 2845 2844 2844 2844 2844 2843 2843 2843 2842 2841 2841 2842 2843 2843 2844 2845 2846 2847 2848 2851 2853 2855 2857 2859 2861 2862 2863 2864 2866 2867 2869 2871 2873 2875 2877 2879 2882 2884 2887 2890 2893 2896 2899 2902 2903 2906 2909
2874 2873 2872 2870 2869 2868 2867 2866 2866 2865 2864 2864 2863 2863 2862 2862 2861 2860 2859 2858 2858 2857 2856 2854 2853 2852 2851 2851 2850 2849 2848 2848 2848 2848 2848 2846 2846 2845 2844 2843 2842 2842 2842 2841 2840 2840 2840 2839 2839 2839 2840 2841 2842 2842 2843 2844 2845 2846 2848 2849 2852 2854 2856 2858 2858 2859 2861 2863 2864 2866 2868 2870 2872 2874 2876 2878 2881 2883 2886 2889 2892 2895 2898 2899 2902 2905
2872 2871 2869 2868 2867 2866 2865 2864 2863 2863 2862 2862 2861 2861 2860 2859 2858 2858 2857 2856 2855 2854 2853 2853 2851 2851 2850 2849 2848 2847 2847 2846 2846 2846 2846 2845 2844 2843 2843 2842 2841 2840 2839 2838 2838 2838 2838 2837 2837 2837 2838 2839 2840 2841 2841 2842 2843 2844 2845 2847 2848 2851 2853 2854 2855 2856 2857 2859 2861 2863 2865 2868 2869 2871 2873 2876 2878 2880 2883 2886 2889 2891 2894 2896 2898 2901
2870 2869 2867 2866 2865 2864 2863 2862 2861 2860 2860 2859 2859 2858 2858 2857 2856 2855 2855 2854 2853 2852 2851 2850 2849 2848 2848 2847 2846 2846 2845 2845 2844 2844 2844 2843 2843 2842 2841 2840 2839 2838 2837 2836 2835 2835 2835 2835 2835 2835 2835 2837 2838 2839 2839 2840 2841 2842 2843 2844 2847 2848 2850 2851 2852 2853 2854 2856 2858 2861 2863 2865 2867 2869 2871 2873 2875 2878 2880 2883 2885 2888 2891 2893 2895 2898
2868 2867 2865 2864 2863 2862 2861 2860 2859 2858 2857 2857 2856 2855 2855 2854 2853 2853 2852 2852 2851 2850 2849 2848 2847 2846 2845 2845 2844 2844 2843 2843 2843 2842 2842 2841 2841 2840 2839 2838 2838 2837 2836 2835 2833 2833 2833 2833 2833 2833 2834 2835 2836 2837 2837 2838 2839 2840 2842 2843 2844 2846 2847 2848 2850 2851 2852 2854 2856 2858 2860 2862 2864 2866 2868 2871 2873 2875 2877 2879 2883 2885 2888 2890 2893 2895
2867 2865 2863 2862 2861 2860 2859 2858 2857 2856 2855 2854 2853 2853 2852 2851 2851 2850 2849 2849 2848 2848 2847 2846 2845 2844 2843 2843 2843 2843 2842 2842 2841 2840 2840 2839 2839 2838 2837 2837 2836 2836 2835 2834 2832 2831 2831 2831 2831 2831 2832 2833 2834 2835 2835 2836 2838 2838 2840 2841 2842 2843 2844 2846 2848 2849 2851 2852 2854 2856 2858 2860 2862 2864 2866 2868 2870 2872 2874 2877 2880 2883 2886 2888 2890 2892
2865 2863 2862 2860 2859 2858 2857 2856 2854 2853 2852 2851 2850 2850 2849 2849 2848 2847 2846 2846 2845 2845 2845 2844 2843 2842 2841 2841 2841 2841 2841 2841 2840 2839 2838 2838 2837 2836 2835 2835 2834 2834 2833 2833 2831 2830 2829 2829 2829 2829 2830 2832 2832 2833 2833 2834 2836 2837 2838 2838 2839 2841 2843 2845 2846 2848 2849 2850 2852 2853 2855 2856 2858 2861 2863 2865 2868 2870 2872 2875 2878 2881 2884 2886 2888 2890
2863 2861 2860 2858 2857 2856 2855 2853 2852 2851 2850 2849 2848 2848 2847 2847 2846 2845 2844 2843 2843 2843 2842 2841 2840 2839 2839 2838 2839 2839 2840 2839 2839 2838 2838 2837 2835 2834 2833 2833 2832 2832 2831 2830 2830 2829 2828 2828 2827 2828 2828 2830 2831 2831 2832 2833 2834 2835 2836 2837 2838 2840 2842 2843 2843 2845 2846 2847 2848 2849 2850 2853 2855 2857 2859 2862 2865 2867 2870 2872 2875 2878 2881 2884 2886 2888
2861 2860 2858 2857 2855 2854 2853 2852 2850 2849 2848 2847 2846 2846 2845 2845 2844 2843 2842 2842 2841 2841 2840 2839 2838 2837 2837 2837 2837 2837 2837 2838 2838 2837 2836 2835 2833 2832 2831 2830 2830 2829 2829 2828 2828 2828 2827 2827 2826 2826 2827 2828 2828 2829 2830 2832 2833 2833 2834 2835 2836 2837 2838 2839 2841 2842 2843 2844 2845 2847 2849 2851 2853 2855 2857 2859 2862 2865 2867 2870 2872 2875 2878 2881 2883 2886
2860 2858 2857 2855 2854 2853 2851 2850 2849 2848 2847 2846 2845 2844 2843 2843 2842 2841 2841 2840 2839 2838 2838 2837 2836 2835 2835 2835 2834 2834 2834 2835 2835 2835 2834 2833 2832 2831 2829 2828 2828 2827 2827 2826 2826 2826 2825 2825 2825 2825 2825 2826 2826 2827 2828 2830 2831 2832 2833 2833 2834 2834 2835 2836 2838 2840 2841 2842 2844 2845 2847 2849 2851 2853 2854 2856 2859 2861 2864 2867 2869 2872 2875 2878 2881 2883
2859 2857 2855 2854 2853 2851 2850 2848 2848 2846 2845 2844 2843 2843 2842 2841 2840 2840 2839 2838 2837 2837 2836 2835 2834 2834 2833 2833 2832 2832 2832 2832 2832 2832 2832 2831 2830 2829 2828 2827 2826 2826 2825 2825 2824 2824 2824 2823 2823 2823 2823 2824 2824 2825 2826 2828 2829 2831 2832 2832 2833 2833 2833 2834 2836 2837 2839 2840 2842 2844 2846 2848 2849 2851 2852 2854 2856 2858 2861 2864 2867 2869 2872 2874 2877 2880
2858 2856 2854 2853 2851 2850 2848 2847 2846 2845 2844 2843 2842 2841 2840 2839 2839 2838 2837 2837 2836 2835 2834 2834 2833 2833 2832 2831 2831 2831 2831 2830 2830 2830 2830 2829 2829 2828 2827 2826 2825 2825 2824 2824 2823 2823 2823 2823 2822 2822 2822 2822 2822 2823 2824 2826 2827 2829 2830 2831 2832 2832 2831 2831 2832 2834 2836 2838 2841 2843 2844 2846 2848 2849 2850 2852 2853 2856 2858 2861 2864 2867 2869 2872 2874 2877
2856 2854 2853 2851 2849 2848 2847 2846 2844 2843 2842 2841 2840 2840 2839 2838 2837 2836 2836 2835 2834 2834 2833 2832 2832 2831 2831 2831 2830 2830 2830 2829 2829 2828 2828 2828 2827 2826 2826 2825 2825 2824 2823 2823 2823 2822 2822 2822 2821 2821 2821 2821 2821 2822 2823 2824 2825 2826 2828 2829 2830 2830 2830 2829 2829 2831 2834 2836 2839 2841 2843 2844 2845 2846 2848 2850 2852 2854 2856 2859 2862 2864 2867 2870 2872 2875
2855 2853 2851 2850 2848 2847 2845 2844 2843 2842 2841 2840 2839 2838 2838 2837 2836 2835 2834 2833 2833 2832 2832 2831 2831 2830 2830 2830 2830 2829 2829 2828 2828 2827 2826 2826 2825 2825 2824 2824 2823 2823 2823 2822 2822 2822 2821 2821 2821 2820 2820 2820 2820 2821 2821 2823 2823 2824 2825 2826 2828 2828 2828 2827 2828 2829 2832 2834 2836 2838 2839 2840 2842 2843 2846 2848 2851 2853 2854 2857 2860 2862 2865 2868 2870 2873
2854 2852 2850 2849 2847 2846 2844 2843 2842 2840 2839 2838 2838 2837 2836 2835 2834 2833 2833 2832 2831 2831 2830 2830 2830 2830 2829 2829 2829 2829 2828 2827 2826 2826 2825 2825 2824 2824 2823 2823 2822 2821 2821 2821 2820 2820 2820 2820 2820 2820 2820 2819 2819 2820 2820 2821 2821 2822 2823 2823 2824 2825 2826 2825 2826 2827 2829 2831 2833 2835 2836 2838 2839 2842 2844 2847 2849 2851 2852 2855 2858 2860 2863 2866 2869 2872
2853 2851 2850 2848 2846 2845 2843 2842 2840 2839 2838 2837 2836 2835 2834 2834 2833 2832 2831 2831 2830 2830 2829 2829 2829 2829 2829 2829 2828 2828 2827 2826 2826 2825 2824 2824 2823 2823 2822 2822 2821 2821 2820 2819 2819 2818 2818 2818 2818 2818 2818 2819 2819 2818 2818 2819 2819 2820 2820 2821 2822 2823 2823 2823 2824 2825 2827 2829 2831 2833 2835 2836 2838 2840 2842 2844 2846 2848 2851 2853 2855 2858 2861 2864 2867 2870